sat.trackr.live / text

‹ back to catalog

STARLINK-36563

NORAD 67550 · 2026-014U

PAYLOAD ACTIVE UNKNOWN

§ Identity

Operator
Country
US
Launch date
2026-01-22
Launch site
AFWTR
Launch vehicle
Mass (kg)
RCS (m²)

Purposes: comms

External: N2YO · Heavens-Above · Gunter

§ Orbital elements

Epoch: 2026-09-19T11:01:37.121952Z

Period
93.91 min
Inclination
97.2856°
Eccentricity
0.0001994
Mean motion
15.33439279 rev/d
Perigee alt
464.2 km
Apogee alt
466.9 km
Semi-major
6,843.7 km
B*
4.6798e-4
RAAN
147.9132°
Arg perigee
85.4207°
Mean anomaly
274.7263°
Rev number
3,848

§ Raw data

STARLINK-365631 67550U 26014U   26262.45945743  .00015061  00000+0  46798-3 0  99942 67550  97.2856 147.9132 0001994  85.4207 274.7263 15.33439279 38488

JSON: /api/v1/satellites/67550 · /tle

For live sub-satellite position, see the globe view (requires WebGL).

§ Visibility from observer

Set your observer location to see the next 7 days of passes ≥ 10°. The values pass through the URL so the page stays shareable.

No JS? Fill the form by hand. The geolocation button needs JavaScript.